• In Belgium
  • List of Countries
  • For 7 days
  • Water Temperature
  • Satellite Maps
  • Weather Map
  • Weather Widgets
  • user-avatar
    Login

    Hourly Weather Lezhe

    Today, 19 September, Wednesday

    Time Temperature Precipitation Wind Pressure Humidity
    00:00 +20°C° 0 mm 2 mps 740 mmHg 58%
    01:00 +20°C° 0 mm 2 mps 740 mmHg 59%
    02:00 +20°C° 0 mm 2 mps 740 mmHg 60%
    03:00 +19°C° 0 mm 2 mps 740 mmHg 61%
    04:00 +19°C° 0 mm 2 mps 740 mmHg 62%
    05:00 +20°C° 0 mm 2 mps 740 mmHg 60%
    06:00 +21°C° 0 mm 2 mps 740 mmHg 58%
    07:00 +23°C° 0 mm 2 mps 740 mmHg 56%
    08:00 +26°C° 0 mm 2 mps 740 mmHg 50%
    09:00 +28°C° 0 mm 1 mps 740 mmHg 44%
    10:00 +30°C° 0 mm 1 mps 740 mmHg 38%
    11:00 +31°C° 0 mm 1 mps 740 mmHg 37%
    12:00 +31°C° 0 mm 2 mps 740 mmHg 35%
    13:00 +33°C° 0 mm 3 mps 740 mmHg 34%
    14:00 +31°C° 0 mm 3 mps 739 mmHg 36%
    15:00 +31°C° 0 mm 3 mps 739 mmHg 38%
    16:00 +30°C° 0 mm 2 mps 739 mmHg 40%
    17:00 +28°C° 0 mm 2 mps 739 mmHg 45%
    18:00 +26°C° 0 mm 2 mps 739 mmHg 51%
    19:00 +24°C° 0 mm 1 mps 739 mmHg 56%
    20:00 +23°C° 0 mm 1 mps 740 mmHg 56%
    21:00 +23°C° 0 mm 1 mps 740 mmHg 57%
    22:00 +23°C° 0 mm 1 mps 740 mmHg 57%
    23:00 +22°C° 0 mm 1 mps 740 mmHg 58%

    Tomorrow, 20 September, Thursday

    Time Temperature Precipitation Wind Pressure Humidity
    00:00 +21°C° 0 mm 2 mps 740 mmHg 59%
    01:00 +21°C° 0 mm 2 mps 740 mmHg 60%
    02:00 +20°C° 0 mm 2 mps 740 mmHg 60%
    03:00 +20°C° 0 mm 2 mps 739 mmHg 61%
    04:00 +20°C° 0 mm 2 mps 739 mmHg 62%
    05:00 +21°C° 0 mm 2 mps 739 mmHg 60%
    06:00 +23°C° 0 mm 2 mps 739 mmHg 58%
    07:00 +24°C° 0 mm 2 mps 740 mmHg 56%
    08:00 +26°C° 0 mm 2 mps 740 mmHg 49%
    09:00 +28°C° 0 mm 1 mps 740 mmHg 43%
    10:00 +30°C° 0 mm 1 mps 740 mmHg 37%
    11:00 +31°C° 0 mm 2 mps 739 mmHg 36%
    12:00 +31°C° 0 mm 2 mps 739 mmHg 35%
    13:00 +33°C° 0 mm 3 mps 739 mmHg 34%
    14:00 +31°C° 0 mm 3 mps 739 mmHg 36%
    15:00 +30°C° 0 mm 3 mps 738 mmHg 39%
    16:00 +29°C° 0 mm 2 mps 738 mmHg 41%
    17:00 +27°C° 0 mm 2 mps 738 mmHg 46%
    18:00 +26°C° 0 mm 2 mps 738 mmHg 50%
    19:00 +24°C° 0 mm 1 mps 739 mmHg 54%
    20:00 +23°C° 0 mm 2 mps 739 mmHg 53%
    21:00 +23°C° 0 mm 2 mps 739 mmHg 52%
    22:00 +21°C° 0 mm 2 mps 739 mmHg 51%
    23:00 +21°C° 0 mm 2 mps 739 mmHg 50%

    Day after tomorrow, 21 September, Friday

    Time Temperature Precipitation Wind Pressure Humidity
    00:00 +21°C° 0 mm 2 mps 739 mmHg 49%
    01:00 +20°C° 0 mm 2 mps 739 mmHg 49%
    02:00 +20°C° 0 mm 2 mps 739 mmHg 49%
    03:00 +20°C° 0 mm 2 mps 739 mmHg 49%
    04:00 +20°C° 0 mm 2 mps 739 mmHg 49%
    05:00 +21°C° 0 mm 2 mps 739 mmHg 48%
    06:00 +21°C° 0 mm 2 mps 739 mmHg 47%
    07:00 +23°C° 0 mm 2 mps 739 mmHg 47%
    08:00 +25°C° 0 mm 2 mps 739 mmHg 42%
    09:00 +28°C° 0 mm 1 mps 739 mmHg 37%
    10:00 +30°C° 0 mm 1 mps 739 mmHg 32%
    11:00 +30°C° 0 mm 2 mps 739 mmHg 32%
    12:00 +31°C° 0 mm 2 mps 739 mmHg 32%
    13:00 +31°C° 0 mm 3 mps 739 mmHg 31%
    14:00 +31°C° 0 mm 2 mps 739 mmHg 34%
    15:00 +30°C° 0 mm 2 mps 738 mmHg 36%
    16:00 +29°C° 0 mm 2 mps 738 mmHg 39%
    17:00 +27°C° 0 mm 2 mps 738 mmHg 46%
    18:00 +25°C° 0 mm 1 mps 738 mmHg 53%
    19:00 +20°C° 0 mm 0 mps 739 mmHg 61%
    20:00 +22°C° 0 mm 1 mps 739 mmHg 61%
    21:00 +22°C° 0 mm 1 mps 739 mmHg 61%
    22:00 +22°C° 0 mm 1 mps 739 mmHg 62%
    23:00 +21°C° 0 mm 1 mps 739 mmHg 62%

    22 September, Saturday

    Time Temperature Precipitation Wind Pressure Humidity
    00:00 +21°C° 0 mm 1 mps 739 mmHg 62%
    01:00 +21°C° 0 mm 1 mps 739 mmHg 63%
    02:00 +21°C° 0 mm 1 mps 739 mmHg 63%
    03:00 +20°C° 0 mm 1 mps 739 mmHg 63%
    04:00 +20°C° 0 mm 1 mps 739 mmHg 64%
    05:00 +21°C° 0 mm 1 mps 739 mmHg 61%
    06:00 +22°C° 0 mm 1 mps 739 mmHg 57%
    07:00 +23°C° 0 mm 1 mps 739 mmHg 54%
    08:00 +25°C° 0 mm 1 mps 739 mmHg 49%
    09:00 +27°C° 0 mm 1 mps 740 mmHg 44%
    10:00 +29°C° 0 mm 1 mps 740 mmHg 38%
    11:00 +30°C° 0 mm 2 mps 739 mmHg 37%
    12:00 +30°C° 0 mm 2 mps 739 mmHg 36%
    13:00 +31°C° 0 mm 3 mps 739 mmHg 35%
    14:00 +30°C° 0 mm 3 mps 738 mmHg 38%
    15:00 +30°C° 0 mm 3 mps 738 mmHg 41%
    16:00 +29°C° 0 mm 3 mps 738 mmHg 44%
    17:00 +26°C° 0 mm 2 mps 738 mmHg 53%
    18:00 +24°C° 0 mm 1 mps 739 mmHg 63%
    19:00 +22°C° 0 mm 1 mps 739 mmHg 72%
    20:00 +21°C° 0 mm 1 mps 739 mmHg 72%
    21:00 +21°C° 0 mm 1 mps 739 mmHg 73%
    22:00 +21°C° 0 mm 1 mps 739 mmHg 73%
    23:00 +21°C° 0 mm 1 mps 739 mmHg 72%

    23 September, Sunday

    Time Temperature Precipitation Wind Pressure Humidity
    00:00 +21°C° 0 mm 1 mps 739 mmHg 72%
    01:00 +20°C° 0 mm 1 mps 739 mmHg 71%
    02:00 +20°C° 0 mm 1 mps 740 mmHg 70%
    03:00 +20°C° 0 mm 1 mps 740 mmHg 69%
    04:00 +19°C° 0 mm 2 mps 740 mmHg 68%
    05:00 +20°C° 0 mm 2 mps 740 mmHg 66%
    06:00 +20°C° 0 mm 2 mps 741 mmHg 64%
    07:00 +21°C° 0 mm 2 mps 741 mmHg 62%
    08:00 +24°C° 0 mm 2 mps 741 mmHg 56%
    09:00 +26°C° 0 mm 2 mps 741 mmHg 50%
    10:00 +28°C° 0 mm 2 mps 741 mmHg 44%
    11:00 +29°C° 0 mm 2 mps 741 mmHg 41%
    12:00 +30°C° 0 mm 2 mps 740 mmHg 38%
    13:00 +31°C° 0 mm 3 mps 740 mmHg 35%
    14:00 +31°C° 0 mm 3 mps 740 mmHg 37%
    15:00 +30°C° 0 mm 3 mps 739 mmHg 39%
    16:00 +30°C° 0 mm 3 mps 739 mmHg 41%
    17:00 +27°C° 0 mm 2 mps 739 mmHg 49%
    18:00 +25°C° 0 mm 2 mps 739 mmHg 57%
    19:00 +22°C° 0 mm 1 mps 739 mmHg 65%
    20:00 +22°C° 0 mm 1 mps 739 mmHg 65%
    21:00 +22°C° 0 mm 1 mps 739 mmHg 65%
    22:00 +22°C° 0 mm 1 mps 739 mmHg 65%
    23:00 +21°C° 0 mm 1 mps 739 mmHg 65%

    24 September, Monday

    Time Temperature Precipitation Wind Pressure Humidity
    00:00 +21°C° 0 mm 1 mps 738 mmHg 65%
    01:00 +21°C° 0 mm 1 mps 738 mmHg 65%
    02:00 +20°C° 0 mm 2 mps 738 mmHg 65%
    03:00 +20°C° 0 mm 2 mps 737 mmHg 65%
    04:00 +19°C° 0 mm 2 mps 737 mmHg 65%
    05:00 +20°C° 0 mm 2 mps 737 mmHg 62%
    06:00 +21°C° 0 mm 2 mps 737 mmHg 59%
    07:00 +23°C° 0 mm 2 mps 737 mmHg 55%
    08:00 +25°C° 0 mm 3 mps 737 mmHg 51%
    09:00 +27°C° 0 mm 3 mps 736 mmHg 46%
    10:00 +29°C° 0 mm 3 mps 736 mmHg 41%
    11:00 +29°C° 0 mm 4 mps 736 mmHg 41%
    12:00 +30°C° 0 mm 4 mps 735 mmHg 41%
    13:00 +30°C° 0 mm 5 mps 735 mmHg 41%
    14:00 +29°C° 0 mm 4 mps 734 mmHg 45%
    15:00 +29°C° 0 mm 4 mps 734 mmHg 49%
    16:00 +28°C° 0 mm 4 mps 733 mmHg 52%
    17:00 +26°C° 0.1 mm 4 mps 733 mmHg 63%
    18:00 +23°C° 0.1 mm 4 mps 733 mmHg 74%
    19:00 +21°C° 0.1 mm 3 mps 733 mmHg 85%
    20:00 +21°C° 0.5 mm 3 mps 733 mmHg 87%
    21:00 +20°C° 0.5 mm 3 mps 733 mmHg 88%
    22:00 +20°C° 0.5 mm 3 mps 733 mmHg 90%
    23:00 +20°C° 1.1 mm 3 mps 733 mmHg 89%
    Show more